Home   Weather   Chula Vista   Past weeks

Flag for USA Past Weather in Chula Vista, California, USA — Yesterday and Last 2 Weeks

Now
54 °F

Light rain. Fog.


Feels Like: 47 °F
Forecast: 53 / 58 °F
Wind: 30 mph from South

Location: Brown Field Municipal Airport

Current Time: Jan 20, 2017 at 2:42:01 pm

Latest Report: Jan 20, 2017 at 1:55 pm


Visibility: 2 mi

Pressure: 29.53 "Hg

Humidity: 90%

Dew Point: 51 °F

Location of Chula VistaLocation

Past Weather in Chula Vista — Graph

°F

Chula Vista Temperature Yesterday

Maximum temperature yesterday: 60 °F (at 11:37 am)
Minimum temperature yesterday: 47 °F (at 7:53 pm)
Average temperature yesterday: 55 °F

High & Low Weather Summary for the Past Weeks

 TemperatureHumidityPressure
High77 °F (Jan 8, 12:53 pm)100% (Jan 5, 3:06 pm)30.21 "Hg (Jan 5, 3:06 pm)
Low43 °F (Jan 17, 4:37 am)35% (Jan 7, 12:53 pm)29.57 "Hg (Jan 20, 1:03 pm)
Average55 °F86%30.05 "Hg
* Reported Jan 5 1:38 pm — Jan 20 1:03 pm, Chula Vista, Weather by CustomWeather, © 2017

Note: Actual official high and low records may vary slightly from our data, if they occured in-between our weather recording intervals... More about our weather records

Advertising

Chula Vista Weather History for the Previous 24 Hours

Scroll right to see more
 ConditionsComfort  
Time TempWeatherWind HumidityBarometerVisibility
1:03 pm
Fri, Jan 20
55 °FLight rain. Cloudy.23 mph87%29.57 "Hg8 mi
12:00 pm54 °FLight rain. Mostly cloudy.21 mph93%29.67 "Hg7 mi
11:35 am53 °FLight rain. Fog.18 mph96%29.71 "Hg4 mi
11:06 am53 °FRain. Fog.16 mph96%29.76 "Hg5 mi
9:53 am53 °FLight rain. Fog.12 mph93%29.80 "Hg5 mi
9:14 am53 °FLight rain. Mostly cloudy.13 mph93%29.81 "Hg9 mi
7:53 am52 °FRain. Fog.7 mph97%29.84 "Hg4 mi
6:53 am53 °FRain. Fog.9 mph89%29.83 "Hg4 mi
5:53 am53 °FOvercast.6 mph96%29.81 "Hg9 mi
4:53 am52 °FPassing clouds.3 mph97%29.83 "Hg10 mi
3:53 am52 °FMostly cloudy.No wind97%29.83 "Hg10 mi
2:53 am52 °FOvercast.No wind97%29.87 "Hg9 mi
2:22 am52 °FOvercast.No wind97%29.89 "Hg8 mi
1:53 am52 °FOvercast.No wind93%29.88 "Hg9 mi
1:24 am53 °FMostly cloudy.6 mph93%29.88 "Hg10 mi
12:53 am53 °FFog.8 mph93%29.88 "Hg6 mi
12:01 am53 °FLight rain. Mostly cloudy.7 mph93%29.91 "Hg7 mi
10:53 pm
Thu, Jan 19
52 °FOvercast.5 mph93%29.94 "Hg7 mi
9:53 pm50 °FOvercast.6 mph93%29.93 "Hg10 mi
8:53 pm50 °FOvercast.3 mph93%29.94 "Hg10 mi
7:53 pm47 °FClear.5 mph97%29.94 "Hg10 mi
6:53 pm51 °FPassing clouds.3 mph89%29.95 "Hg10 mi
5:53 pm53 °FClear.No wind80%29.95 "Hg10 mi
4:53 pm55 °FSunny.8 mph77%29.94 "Hg10 mi
3:53 pm57 °FPassing clouds.8 mph81%29.93 "Hg10 mi
3:19 pm58 °FPassing clouds.12 mph81%29.94 "Hg10 mi
2:53 pm58 °FLight rain. Broken clouds.9 mph84%29.94 "Hg10 mi
Weather by CustomWeather, © 2017

See weather overviewHow to use our weather pages